ATLAS 5 CENTAUR DEB, 46846

Orbit data source: Space-Track

ATLAS 5 CENTAUR DEB, 46846 is space debris in HEO originally from a launch on Wed, 17 Oct 2018 UTC launched from the Air Force Eastern Test Range (AFETR). Debris objects in space refer to the collection of defunct objects orbiting the Earth. Examples of debris include non-operational satellites, rocket bodies, and fragments generated from explosions, collisions, or faulty payload assembly.

Loading next visibility...
Identifier
46846, 2018-079DB
Orbit
HEO
Last TLE update
1 day ago
Origin
Flag of USUnited Launch Alliance/Lockheed Martin (US)
Manufacturer
ULA Decatur
Mission
Spacecraft
Bus & Motor
Unknown
Mass
Unknown
Launch date (UTC)
2018-10-17 (7 years ago)
Launch vehicle
Unknown
Launch site
Air Force Eastern Test Range (AFETR)
Object type
Payload
Rocket body
Debris
Shape & HBR
Unknown
Radar Cross Section
RCS unknown

Expand to show TLE details & history

TLE from 1 day ago
0 ATLAS 5 CENTAUR DEB
1 46846U 18079DB  25182.06621150 -.00000128  00000-0  00000+0 0  9993
2 46846  11.6923  89.1130 4594872 213.7731 105.8624  1.71774552 29261
Epoch: 2025-07-01T01:35Z
TLE epoch observation values (Epoch: 2025-07-01T01:35:20.673Z)
Latitude
0.00004°
Longitude
145.89082°
Altitude
31,236.489 km
Speed
2.768 km/s
True Right ascension
05h 56m 22s
True Declination
0° 00' 00"
Sunlit
Object was in daylight at epoch
Visualization orbit readout
Latitude
1.3093°
Longitude
152.1272°
Altitude
32,866.285 km
Speed
2.604 km/s
Apparent Right ascension
06h 16m 56s
Apparent Declination
-4° 07' 16"
Sunlit
Object is in daylight
Visualization observer readout
Local Sidereal Time
17:41:45
Azimuth
345.199° N
Elevation
-53.332°
Doppler factor
1
Orbital elements
Apogee altitude
36,607.766 km
Perigee altitude
9,541.448 km
Semi-major axis
29,452.744 km
Eccentricity
0.45949
Inclination
11.6923°
RAAN
89.113°
Arg. of periapsis
213.7731°
True anomaly
Unknown
Mean anomaly
105.8624°
Eccentric anomaly
Unknown
Mean motion
0.42939 °/min
Orbital period
838.39 mins
BSTAR
0
Loading maneuver chart data...
Loading SW <> Apogee altitude chart data...

ATLAS 5 CENTAUR DEB Visibility forecast

Observer location: undefined°, undefined°

Span
Click to sort rows by Start time (UTC) header in descending order
Start Az.
Max El. time (UTC)
Max El. Az.
Max El.
End time (UTC)
End Az.
751 mins2025-07-02 16:43:05.403Z226.202° WSW2025-07-03 04:04:05.403Z206.942° SW34.623°2025-07-03 05:14:05.403Z133.125° SE
|